User: anonymous   Login
Location: Puketoi
(40.5833°S, 176.0167°E)
Time: 07:18:20
(UTC+00:00)
Language:

Cosmos 1455 Rocket - Orbit

View from above orbital plane
View from above orbital plane
View from above satellite
View from above satellite

Ground track
Ground track

The orbit data is extracted from the following two-line orbital elements,

1 14033U 83037B   24106.55530135  .00000793  00000-0  90271-4 0  9994
2 14033  82.5080 164.5053 0017954 160.8526 199.3369 14.84847233828433
Epoch (UTC): 15 April 2024 13:19:38
Eccentricity: 0.0017954
inclination: 82.5080°
perigee height: 601 km
apogee height: 626 km
right ascension of ascending node: 164.5053°
argument of perigee: 160.8526°
revolutions per day: 14.84847233
mean anomaly at epoch: 199.3369°
orbit number at epoch: 82843

The dashed part of the orbit path shows where the satellite is in the earth's shadow,  

DLR